Waukesha, WI

12:42 AM CST on February 18, 2018 (GMT -0600)
Waukesha County

Weather History for KUES - August, 2013

Change the Weather History Date:

Thursday, August 15, 2013

  Actual Average Record
Temperature  
Mean Temperature 64 °F -  
Max Temperature 75 °F 81 °F 95 °F (1987)
Min Temperature 53 °F 60 °F 19 °F (1998)
Degree Days  
Heating Degree Days 1    
Growing Degree Days 14 (Base 50)    
Moisture  
Dew Point 50 °F    
Average Humidity 70    
Maximum Humidity 88    
Minimum Humidity 33    
Precipitation  
Precipitation 0.00 in - - ()
Sea Level Pressure  
Sea Level Pressure 30.15 in    
Wind  
Wind Speed 5 mph (SSW)    
Max Wind Speed 7 mph    
Max Gust Speed -    
Visibility 10 miles    
Events      
Averages and records for this station are not official NWS values.
T = Trace of Precipitation, MM = Missing Value Source: NWS Daily Summary

Daily Weather History Graph

Daily Weather History Graph

Search for Another Location

Airport or City:

Trip Planner

Search our weather history database for the weather conditions in past years. The results will help you decide how hot, cold, wet, or windy it might be!

Date:

Astronomy

Aug. 15, 2013 Rise Set
Actual Time 5:59 AM CDT 7:54 PM CDT
Civil Twilight 5:28 AM CDT 8:25 PM CDT
Nautical Twilight 4:50 AM CDT 9:02 PM CDT
Astronomical Twilight 4:09 AM CDT 9:43 PM CDT
Moon 3:14 PM CDT (8/15) 12:05 AM CDT (8/15)
Length of Visible Light 14h 57m
Length of Day
13h 55m
Waxing Gibbous, 64% of the Moon is Illuminated
Aug 15
Waxing Gibbous
Aug 20
Full
Aug 28
Last Quarter
Sep 5
New
Sep 12
First Quarter

Hourly Weather History & Observations

Time (CDT) Temp. Dew Point Humidity Pressure Visibility Wind Dir Wind Speed Gust Speed Precip Events Conditions
12:15 AM 53.6 °F 50.0 °F 88% 30.17 in 10.0 mi South 5.8 mph - N/A   Clear
12:35 AM 53.6 °F 50.0 °F 88% 30.17 in 10.0 mi South 5.8 mph - N/A   Clear
12:55 AM 53.6 °F 50.0 °F 88% 30.17 in 10.0 mi South 4.6 mph - N/A   Clear
1:15 AM 53.6 °F 50.0 °F 88% 30.17 in 10.0 mi South 5.8 mph - N/A   Mostly Cloudy
1:35 AM 53.6 °F 50.0 °F 88% 30.17 in 10.0 mi South 5.8 mph - N/A   Scattered Clouds
1:55 AM 53.6 °F 50.0 °F 88% 30.16 in 10.0 mi South 5.8 mph - N/A   Clear
2:15 AM 53.6 °F 50.0 °F 88% 30.16 in 10.0 mi South 4.6 mph - N/A   Mostly Cloudy
2:35 AM 53.6 °F 50.0 °F 88% 30.15 in 10.0 mi SSW 3.5 mph - N/A   Mostly Cloudy
2:55 AM 53.6 °F 50.0 °F 88% 30.16 in 10.0 mi SSW 4.6 mph - N/A   Scattered Clouds
3:15 AM 53.6 °F 50.0 °F 88% 30.15 in 10.0 mi SSW 5.8 mph - N/A   Mostly Cloudy
3:35 AM 53.6 °F 50.0 °F 88% 30.15 in 10.0 mi SSW 6.9 mph - N/A   Scattered Clouds
3:55 AM 53.6 °F 50.0 °F 88% 30.15 in 10.0 mi SSW 5.8 mph - N/A   Clear
4:15 AM 53.6 °F 50.0 °F 88% 30.15 in 10.0 mi SW 5.8 mph - N/A   Scattered Clouds
4:35 AM 53.6 °F 50.0 °F 88% 30.15 in 10.0 mi SSW 6.9 mph - N/A   Mostly Cloudy
4:55 AM 53.6 °F 50.0 °F 88% 30.15 in 10.0 mi SSW 6.9 mph - N/A   Mostly Cloudy
5:15 AM 53.6 °F 50.0 °F 88% 30.15 in 10.0 mi WSW 3.5 mph - N/A   Overcast
5:35 AM 53.6 °F 50.0 °F 88% 30.15 in 10.0 mi Calm Calm - N/A   Mostly Cloudy
6:45 AM 53.6 °F 50.0 °F 88% 30.15 in 10.0 mi Calm Calm - N/A   Scattered Clouds
7:45 AM 60.8 °F 53.6 °F 77% 30.16 in 10.0 mi WSW 4.6 mph - N/A   Scattered Clouds
8:45 AM 64.4 °F 53.6 °F 68% 30.17 in 10.0 mi WNW 4.6 mph - N/A   Scattered Clouds
9:45 AM 68.0 °F 51.8 °F 56% 30.17 in 10.0 mi Calm Calm - N/A   Scattered Clouds
10:45 AM 71.6 °F 44.6 °F 38% 30.16 in 10.0 mi Calm Calm - N/A   Scattered Clouds
11:45 AM 71.6 °F 44.6 °F 38% 30.15 in 10.0 mi Calm Calm - N/A   Scattered Clouds
12:45 PM 73.4 °F 42.8 °F 33% 30.14 in 10.0 mi WNW 4.6 mph - N/A   Scattered Clouds
1:45 PM 75.2 °F 44.6 °F 34% 30.13 in 10.0 mi West 4.6 mph - N/A   Scattered Clouds
2:45 PM 73.4 °F 44.6 °F 36% 30.12 in 10.0 mi NNW 4.6 mph - N/A   Mostly Cloudy
3:45 PM 75.2 °F 44.6 °F 34% 30.11 in 10.0 mi NW 4.6 mph - N/A   Mostly Cloudy
4:45 PM 75.2 °F 46.4 °F 36% 30.10 in 10.0 mi West 6.9 mph - N/A   Mostly Cloudy
5:45 PM 75.2 °F 46.4 °F 36% 30.11 in 10.0 mi ESE 6.9 mph - N/A   Mostly Cloudy
6:45 PM 71.6 °F 51.8 °F 50% 30.11 in 10.0 mi West 5.8 mph - N/A   Mostly Cloudy
7:45 PM 71.6 °F 53.6 °F 53% 30.12 in 10.0 mi Calm Calm - N/A   Clear
8:45 PM 64.4 °F 51.8 °F 64% 30.13 in 10.0 mi Calm Calm - N/A   Clear
9:15 PM 62.6 °F 50.0 °F 63% 30.14 in 10.0 mi South 5.8 mph - N/A   Clear
9:35 PM 62.6 °F 50.0 °F 63% 30.14 in 10.0 mi South 5.8 mph - N/A   Clear
9:55 PM 62.6 °F 51.8 °F 68% 30.14 in 10.0 mi South 3.5 mph - N/A   Clear
10:15 PM 60.8 °F 51.8 °F 72% 30.14 in 10.0 mi South 3.5 mph - N/A   Clear
10:35 PM 60.8 °F 51.8 °F 72% 30.14 in 10.0 mi SSW 4.6 mph - N/A   Clear
10:55 PM 60.8 °F 51.8 °F 72% 30.14 in 10.0 mi SW 3.5 mph - N/A   Clear
11:15 PM 60.8 °F 51.8 °F 72% 30.15 in 10.0 mi SW 4.6 mph - N/A   Clear
11:35 PM 60.8 °F 51.8 °F 72% 30.15 in 10.0 mi SW 5.8 mph - N/A   Clear
11:55 PM 59.0 °F 51.8 °F 77% 30.15 in 10.0 mi SW 4.6 mph - N/A   Clear